GW5351 Weather Reports


Display with metric or nautical units.
time (UTC)temp
F
wind
direction
speed
MPH
gust
MPH
rain 1hr
in
rain 24hr
in
rain mn
in
humidity
%
barometer
mb
20260505205615 85 210 4.0 7.0 0.00 0.00 0.00 73 1008.4
20260505205113 84 149 1.0 6.0 0.00 0.00 0.00 75 1008.4
20260505204609 84 241 2.0 8.0 0.00 0.00 0.00 75 1008.5
20260505204107 84 214 4.0 8.0 0.00 0.00 0.00 75 1008.4
20260505203603 85 202 2.0 6.0 0.00 0.00 0.00 74 1008.6
20260505203101 85 235 4.0 7.0 0.00 0.00 0.00 74 1008.6
20260505202556 83 158 4.0 6.0 0.00 0.00 0.00 77 1008.7
20260505202052 83 235 4.0 9.0 0.00 0.00 0.00 77 1008.9
20260505201549 84 231 1.0 4.0 0.00 0.00 0.00 76 1008.8
20260505201047 84 218 2.0 10.0 0.00 0.00 0.00 76 1009.1
20260505200545 84 233 2.0 9.0 0.00 0.00 0.00 74 1009.0
20260505200041 84 191 3.0 9.0 0.00 0.00 0.00 75 1009.2
20260505195537 85 222 2.0 4.0 0.00 0.00 0.00 75 1009.2
20260505195035 84 208 2.0 7.0 0.00 0.00 0.00 74 1009.2
20260505194532 84 186 3.0 9.0 0.00 0.00 0.00 75 1009.4
20260505194027 84 231 2.0 7.0 0.00 0.00 0.00 74 1009.4
20260505193525 84 209 3.0 4.0 0.00 0.00 0.00 75 1009.5
20260505193022 84 243 2.0 6.0 0.00 0.00 0.00 75 1009.5
20260505192521 84 191 5.0 9.0 0.00 0.00 0.00 76 1009.4
20260505192018 83 187 3.0 6.0 0.00 0.00 0.00 76 1009.4
20260505191516 82 229 4.0 8.0 0.00 0.00 0.00 77 1009.5
20260505191014 83 198 4.0 7.0 0.00 0.00 0.00 77 1009.7
20260505190508 83 208 6.0 10.0 0.00 0.00 0.00 76 1009.5
20260505190004 83 226 3.0 6.0 0.00 0.00 0.00 77 1009.6
20260505185501 83 207 2.0 4.0 0.00 0.00 0.00 77 1009.7
20260505184957 84 261 4.0 8.0 0.00 0.00 0.00 77 1009.8
20260505184454 83 208 2.0 7.0 0.00 0.00 0.00 78 1009.8
20260505183950 83 223 0.0 6.0 0.00 0.00 0.00 79 1009.6
20260505183448 82 179 2.0 4.0 0.00 0.00 0.00 81 1009.8
20260505182944 80 209 4.0 6.0 0.00 0.00 0.00 82 1009.8
20260505182442 80 282 2.0 4.0 0.00 0.00 0.00 83 1010.0
20260505181937 80 192 2.0 4.0 0.00 0.00 0.00 84 1010.1
20260505181435 80 212 2.0 3.0 0.00 0.00 0.00 84 1009.9
20260505180932 80 218 4.0 6.0 0.00 0.00 0.00 84 1010.0
20260505180428 80 257 4.0 6.0 0.00 0.00 0.00 83 1010.0
20260505175925 80 236 2.0 3.0 0.00 0.00 0.00 83 1010.0
20260505175421 80 255 4.0 6.0 0.00 0.00 0.00 83 1010.1
20260505174918 79 243 3.0 6.0 0.00 0.00 0.00 84 1010.1
20260505174415 79 257 3.0 6.0 0.00 0.00 0.00 84 1010.1
20260505173912 80 222 4.0 6.0 0.00 0.00 0.00 84 1010.2
20260505173408 80 206 1.0 9.0 0.00 0.00 0.00 83 1010.3
20260505172905 80 248 5.0 8.0 0.00 0.00 0.00 83 1010.1
20260505172357 80 150 2.0 6.0 0.00 0.00 0.00 83 1010.2
20260505171857 80 233 4.0 8.0 0.00 0.00 0.00 83 1010.2
20260505171353 79 167 4.0 8.0 0.00 0.00 0.00 84 1010.3
20260505170850 79 166 3.0 7.0 0.00 0.00 0.00 85 1010.3
20260505170347 79 226 1.0 7.0 0.00 0.00 0.00 84 1010.4
20260505165842 79 142 4.0 7.0 0.00 0.00 0.00 85 1010.5
20260505165339 79 233 4.0 9.0 0.00 0.00 0.00 84 1010.4
20260505164834 79 173 2.0 7.0 0.00 0.00 0.00 85 1010.5
20260505164331 79 245 1.0 9.0 0.00 0.00 0.00 85 1010.6
20260505163829 79 232 0.0 4.0 0.00 0.00 0.00 85 1010.5
20260505163328 78 222 3.0 6.0 0.00 0.00 0.00 85 1010.6
20260505162826 78 230 1.0 3.0 0.00 0.00 0.00 86 1010.8
20260505162321 78 204 1.0 7.0 0.00 0.00 0.00 87 1010.5
20260505161819 77 186 2.0 4.0 0.00 0.00 0.00 87 1010.6
20260505161317 77 193 3.0 4.0 0.00 0.00 0.00 88 1010.7
20260505160814 77 240 4.0 6.0 0.00 0.00 0.00 88 1010.5
20260505160311 77 243 2.0 3.0 0.00 0.00 0.00 88 1010.4
20260505153250 77 152 3.0 8.0 0.00 0.00 0.00 87 1010.1
20260505152747 77 227 4.0 7.0 0.00 0.00 0.00 87 1010.1
20260505152243 77 228 3.0 4.0 0.00 0.00 0.00 87 1010.3
20260505151738 77 206 2.0 6.0 0.00 0.00 0.00 87 1010.3
20260505151236 77 222 2.0 4.0 0.00 0.00 0.00 87 1010.2
20260505150732 77 202 1.0 8.0 0.00 0.00 0.00 87 1010.1
20260505150230 76 200 2.0 6.0 0.00 0.00 0.00 88 1010.2
20260505140159 75 220 1.0 7.0 0.00 0.00 0.00 91 1009.8
20260505130123 72 208 1.0 4.0 0.00 0.00 0.00 94 1009.8
20260505124613 72 155 3.0 4.0 0.00 0.00 0.00 95 1009.8
20260505124109 71 203 2.0 4.0 0.00 0.00 0.00 95 1009.4
20260505123605 71 189 1.0 4.0 0.00 0.00 0.00 95 1009.5
20260505123102 71 208 2.0 2.0 0.00 0.00 0.00 95 1009.4
20260505122558 71 185 1.0 3.0 0.00 0.00 0.00 96 1009.7
20260505122056 71 219 1.0 4.0 0.00 0.00 0.00 96 1009.7
20260505121552 71 202 1.0 2.0 0.00 0.00 0.00 96 1009.7
20260505121049 71 191 0.0 2.0 0.00 0.00 0.00 96 1009.6
20260505120545 70 208 1.0 7.0 0.00 0.00 0.00 96 1009.7
20260505120041 70 213 0.0 1.0 0.00 0.00 0.00 96 1009.6
20260505115536 70 186 2.0 4.0 0.00 0.00 0.00 96 1009.2
20260505115034 70 233 1.0 3.0 0.00 0.00 0.00 96 1009.3
20260505114531 70 232 3.0 4.0 0.00 0.00 0.00 96 1009.3
20260505114027 70 191 1.0 2.0 0.00 0.00 0.00 96 1009.2
20260505113523 70 197 1.0 2.0 0.00 0.00 0.00 96 1009.2
20260505113020 70 222 1.0 2.0 0.00 0.00 0.00 96 1009.5
20260505112517 70 205 1.0 3.0 0.00 0.00 0.00 96 1009.8
20260505112015 70 220 0.0 2.0 0.00 0.00 0.00 95 1009.5
20260505111513 70 215 0.0 2.0 0.00 0.00 0.00 95 1009.3
20260505111010 70 204 1.0 3.0 0.00 0.00 0.00 95 1009.5
20260505110507 70 212 1.0 3.0 0.00 0.00 0.00 95 1009.4
20260505101933 70 201 0.0 1.0 0.00 0.00 0.00 95 1009.5
20260505101432 70 209 0.0 1.0 0.00 0.00 0.00 95 1009.4
20260505100928 70 185 1.0 2.0 0.00 0.00 0.00 95 1009.5
20260505100425 70 196 1.0 1.0 0.00 0.00 0.00 95 1009.5
20260505095921 70 196 0.0 2.0 0.00 0.00 0.00 95 1009.3
20260505095418 69 188 3.0 4.0 0.00 0.00 0.00 95 1009.5
20260505094914 69 202 0.0 1.0 0.00 0.00 0.00 95 1009.6
20260505094411 69 198 1.0 1.0 0.00 0.00 0.00 95 1009.7
20260505093907 70 192 0.0 2.0 0.00 0.00 0.00 94 1009.4
20260505093404 69 197 1.0 2.0 0.00 0.00 0.00 94 1009.5
20260505092901 70 201 1.0 1.0 0.00 0.00 0.00 94 1009.6
20260505092359 70 213 1.0 1.0 0.00 0.00 0.00 94 1009.7
20260505091856 70 203 1.0 1.0 0.00 0.00 0.00 94 1009.6
20260505091354 70 199 0.0 1.0 0.00 0.00 0.00 94 1009.6
20260505090852 70 193 1.0 2.0 0.00 0.00 0.00 94 1009.9
20260505090350 69 202 1.0 1.0 0.00 0.00 0.00 94 1009.9
20260505085847 69 209 1.0 2.0 0.00 0.00 0.00 94 1009.9
20260505085345 69 216 1.0 2.0 0.00 0.00 0.00 94 1009.9
20260505084842 69 201 0.0 1.0 0.00 0.00 0.00 94 1009.7
20260505084341 70 214 1.0 2.0 0.00 0.00 0.00 93 1009.8
20260505083838 70 229 0.0 4.0 0.00 0.00 0.00 93 1009.9
20260505083335 70 199 1.0 2.0 0.00 0.00 0.00 93 1009.8
20260505082831 70 215 1.0 2.0 0.00 0.00 0.00 92 1009.9
20260505082328 70 197 0.0 0.0 0.00 0.00 0.00 92 1010.1
20260505081824 70 224 2.0 4.0 0.00 0.00 0.00 92 1010.1
20260505081321 70 201 1.0 1.0 0.00 0.00 0.00 92 1010.0
20260505080818 70 204 1.0 2.0 0.00 0.00 0.00 91 1010.2
20260505080314 70 209 1.0 4.0 0.00 0.00 0.00 91 1010.0
20260505075809 70 206 1.0 2.0 0.00 0.00 0.00 91 1010.3
20260505075307 70 185 1.0 2.0 0.00 0.00 0.00 91 1010.4
20260505074804 70 251 2.0 3.0 0.00 0.00 0.00 91 1010.3
20260505074301 70 194 0.0 3.0 0.00 0.00 0.00 91 1010.3
20260505073758 70 168 2.0 2.0 0.00 0.00 0.00 91 1010.6
20260505073256 70 226 1.0 4.0 0.00 0.00 0.00 91 1010.3
20260505072753 70 178 1.0 3.0 0.00 0.00 0.00 91 1010.4
20260505072249 70 213 0.0 2.0 0.00 0.00 0.00 90 1010.4
20260505071745 70 223 2.0 2.0 0.00 0.00 0.00 90 1010.5
20260505071241 70 200 1.0 3.0 0.00 0.00 0.00 90 1010.5
20260505070739 70 203 1.0 2.0 0.00 0.00 0.00 90 1010.7
20260505070235 70 188 1.0 4.0 0.00 0.00 0.00 90 1010.7
20260505065731 70 172 2.0 3.0 0.00 0.00 0.00 89 1010.8
20260505065228 70 186 2.0 3.0 0.00 0.00 0.00 89 1010.8
20260505064725 70 225 1.0 4.0 0.00 0.00 0.00 89 1010.8
20260505064223 70 229 2.0 3.0 0.00 0.00 0.00 90 1010.9
20260505063721 70 217 1.0 3.0 0.00 0.00 0.00 89 1010.9
20260505063217 70 203 1.0 2.0 0.00 0.00 0.00 89 1010.8
20260505062713 70 210 1.0 4.0 0.00 0.00 0.00 89 1010.9
20260505062211 70 211 1.0 2.0 0.00 0.00 0.00 89 1011.1
20260505061707 70 238 2.0 2.0 0.00 0.00 0.00 89 1011.1
20260505061206 70 217 1.0 4.0 0.00 0.00 0.00 88 1011.1
20260505060703 70 180 1.0 3.0 0.00 0.00 0.00 88 1011.1
20260505060200 70 215 3.0 4.0 0.00 0.00 0.00 88 1011.1
20260505055655 70 199 2.0 4.0 0.00 0.00 0.00 88 1011.2
20260505055151 70 202 2.0 3.0 0.00 0.00 0.00 88 1011.1
20260505054649 70 175 3.0 4.0 0.00 0.00 0.00 88 1011.2
20260505054147 70 204 0.0 2.0 0.00 0.00 0.00 88 1011.1
20260505053644 70 181 1.0 3.0 0.00 0.00 0.00 87 1011.3
20260505053140 70 189 2.0 3.0 0.00 0.00 0.00 87 1011.5
20260505052638 70 191 1.0 2.0 0.00 0.00 0.00 87 1011.4
20260505052135 70 203 3.0 4.0 0.00 0.00 0.00 87 1011.5
20260505051631 71 215 2.0 3.0 0.00 0.00 0.00 86 1011.6
20260505051130 71 203 2.0 3.0 0.00 0.00 0.00 86 1011.5
20260505050627 71 205 2.0 6.0 0.00 0.00 0.00 86 1011.4
20260505050125 71 203 2.0 4.0 0.00 0.00 0.00 86 1011.5
20260505041555 71 210 2.0 8.0 0.00 0.00 0.00 84 1011.6
20260505041052 72 209 2.0 8.0 0.00 0.00 0.00 83 1011.5
20260505040549 72 232 4.0 8.0 0.00 0.00 0.00 83 1011.3
20260505040046 72 244 3.0 9.0 0.00 0.00 0.00 83 1011.5
20260505035542 72 178 5.0 6.0 0.00 0.00 0.00 82 1011.6
20260505035040 72 115 5.0 7.0 0.00 0.00 0.00 82 1011.7
20260505034536 72 203 1.0 4.0 0.00 0.00 0.00 82 1011.7
20260505034033 72 201 7.0 8.0 0.00 0.00 0.00 81 1011.5
20260505033530 73 171 3.0 9.0 0.00 0.00 0.00 81 1011.6
20260505033028 73 215 1.0 4.0 0.00 0.00 0.00 81 1011.8
20260505032525 73 201 2.0 6.0 0.00 0.00 0.00 81 1011.9
20260505032022 73 165 1.0 7.0 0.00 0.00 0.00 81 1011.7
20260505031519 73 206 3.0 7.0 0.00 0.00 0.00 81 1011.9
20260505031015 73 183 3.0 6.0 0.00 0.00 0.00 81 1011.7
20260505030512 73 270 3.0 9.0 0.00 0.00 0.00 80 1011.7
20260505030008 73 246 4.0 7.0 0.00 0.00 0.00 80 1011.6
20260505025504 73 180 2.0 4.0 0.00 0.00 0.00 80 1011.6
20260505025004 73 184 2.0 6.0 0.00 0.00 0.00 79 1011.3
20260505024500 73 217 2.0 3.0 0.00 0.00 0.00 79 1011.4
20260505023957 73 220 2.0 4.0 0.00 0.00 0.00 79 1011.3
20260505023454 74 262 4.0 6.0 0.00 0.00 0.00 78 1011.4
20260505022952 74 207 3.0 4.0 0.00 0.00 0.00 78 1011.6
20260505022449 74 165 3.0 8.0 0.00 0.00 0.00 77 1011.6
20260505021946 74 262 6.0 8.0 0.00 0.00 0.00 77 1011.5
20260505021442 74 219 2.0 3.0 0.00 0.00 0.00 77 1011.4
20260505020938 75 194 2.0 8.0 0.00 0.00 0.00 77 1011.4
20260505020433 75 194 2.0 9.0 0.00 0.00 0.00 76 1011.2
20260505015931 75 230 2.0 3.0 0.00 0.00 0.00 77 1011.4
20260505015428 75 206 0.0 7.0 0.00 0.00 0.00 77 1011.2
20260505014925 74 222 2.0 6.0 0.00 0.00 0.00 77 1011.2
20260505014422 74 194 1.0 4.0 0.00 0.00 0.00 77 1011.1
20260505013919 74 232 3.0 4.0 0.00 0.00 0.00 77 1011.2
20260505013416 74 202 3.0 3.0 0.00 0.00 0.00 78 1011.1
20260505012914 74 132 2.0 3.0 0.00 0.00 0.00 77 1011.2
20260505012411 74 211 2.0 4.0 0.00 0.00 0.00 77 1010.9
20260505011908 74 219 2.0 3.0 0.00 0.00 0.00 77 1010.8
20260505011404 74 179 2.0 4.0 0.00 0.00 0.00 77 1010.8
20260505010901 74 206 1.0 2.0 0.00 0.00 0.00 76 1010.9
20260505010357 75 216 2.0 4.0 0.00 0.00 0.00 76 1011.1
20260505005853 75 195 2.0 4.0 0.00 0.00 0.00 75 1011.1
20260505005350 75 221 1.0 3.0 0.00 0.00 0.00 75 1011.1
20260505004848 75 202 2.0 3.0 0.00 0.00 0.00 74 1011.0
20260505004343 76 195 2.0 4.0 0.00 0.00 0.00 73 1010.9
20260505003841 76 157 2.0 7.0 0.00 0.00 0.00 73 1010.9
20260505003338 76 196 5.0 8.0 0.00 0.00 0.00 72 1010.9
20260505002834 76 166 1.0 7.0 0.00 0.00 0.00 72 1011.0
20260505002331 77 219 2.0 3.0 0.00 0.00 0.00 71 1011.1
20260505001829 77 151 2.0 4.0 0.00 0.00 0.00 71 1010.9
20260505001326 77 195 4.0 8.0 0.00 0.00 0.00 71 1010.8
20260505000823 77 222 2.0 7.0 0.00 0.00 0.00 70 1010.9
20260505000321 77 200 1.0 4.0 0.00 0.00 0.00 70 1011.2
20260504235817 77 195 2.0 6.0 0.00 0.00 0.00 70 1011.2
20260504235314 77 179 3.0 4.0 0.00 0.00 0.00 70 1011.1
20260504234811 78 183 3.0 7.0 0.00 0.00 0.00 70 1011.1
20260504234309 78 237 3.0 6.0 0.00 0.00 0.00 69 1011.0
20260504233805 78 220 4.0 4.0 0.00 0.00 0.00 68 1011.0
20260504233300 78 196 1.0 4.0 0.00 0.00 0.00 68 1011.3
20260504232758 78 214 3.0 6.0 0.00 0.00 0.00 68 1011.1
20260504232255 79 223 2.0 3.0 0.00 0.00 0.00 67 1011.3
20260504231752 79 147 5.0 9.0 0.00 0.00 0.00 66 1011.2
20260504231248 79 238 2.0 7.0 0.00 0.00 0.00 65 1011.3
20260504230744 79 237 3.0 6.0 0.00 0.00 0.00 65 1011.4
20260504230242 79 168 5.0 11.0 0.00 0.00 0.00 64 1011.3
20260504225741 79 257 5.0 11.0 0.00 0.00 0.00 64 1011.6
20260504225237 80 222 4.0 8.0 0.00 0.00 0.00 64 1011.6
20260504224734 80 238 4.0 8.0 0.00 0.00 0.00 63 1011.4
20260504224231 80 127 4.0 6.0 0.00 0.00 0.00 63 1011.6
20260504223728 80 238 1.0 7.0 0.00 0.00 0.00 63 1011.5
20260504223223 80 154 6.0 8.0 0.00 0.00 0.00 62 1011.5
20260504222721 80 187 4.0 7.0 0.00 0.00 0.00 62 1011.6
20260504222217 81 208 2.0 4.0 0.00 0.00 0.00 61 1011.9
20260504221714 81 220 2.0 4.0 0.00 0.00 0.00 61 1011.8
20260504221211 80 187 1.0 6.0 0.00 0.00 0.00 61 1011.8
20260504220708 80 221 2.0 6.0 0.00 0.00 0.00 61 1011.8
20260504220206 80 213 4.0 8.0 0.00 0.00 0.00 61 1012.0
20260504215702 80 152 3.0 6.0 0.00 0.00 0.00 61 1011.8
20260504215159 81 173 4.0 9.0 0.00 0.00 0.00 60 1012.1
20260504214655 82 231 3.0 4.0 0.00 0.00 0.00 59 1012.1
20260504214151 81 231 1.0 7.0 0.00 0.00 0.00 60 1011.9
20260504213648 81 188 2.0 6.0 0.00 0.00 0.00 59 1012.3
20260504213145 82 151 2.0 6.0 0.00 0.00 0.00 59 1012.4
20260504212641 82 197 2.0 2.0 0.00 0.00 0.00 58 1012.1
20260504212138 82 240 5.0 9.0 0.00 0.00 0.00 57 1012.3
20260504211636 82 209 2.0 4.0 0.00 0.00 0.00 58 1012.4
20260504211132 82 198 4.0 7.0 0.00 0.00 0.00 58 1012.6
20260504210630 81 102 4.0 7.0 0.00 0.00 0.00 58 1012.5
20260504210125 83 242 6.0 9.0 0.00 0.00 0.00 56 1012.7